{"data":{"norad_id":64745,"epoch":"2026-05-25T03:29:53.664000Z","epoch_age_seconds":52524,"freshness":"FRESH","line1":"1 64745U 25144X   26145.14576000  .00010508  00000+0  36635-3 0  9992","line2":"2 64745  53.1579 186.1905 0001201  93.4017 266.7121 15.30205601 51415","mean_motion":15.30205601,"eccentricity":0.0001201,"inclination_deg":53.1579,"raan_deg":186.1905,"arg_perigee_deg":93.4017,"mean_anomaly_deg":266.7121,"bstar":0.00036635,"rev_number":5141,"period_min":94.105001253358,"perigee_km":474.37526031888,"apogee_km":476.02143146896,"semimajor_km":6853.3353458939,"source":"CELESTRAK","updated_at":"2026-05-25T13:38:20.549507Z"}}